Regional Weather Roundup
Issued by NWS Green Bay, WI

Home | Current Version | Previous Version | Text Only | Print | Product List | Glossary On
Versions: 1 2 3 4 5 6 7 8 9 10 11 12 13 14 15 16 17 18 19 20 21 22 23 24 25 26 27 28 29 30 31 32 33 34 35 36 37 38 39 40 41 42 43 44 45 46 47 48 49 50
785
ASUS43 KGRB 241011
RWRGRB

NORTH-CENTRAL AND NORTHEAST WISCONSIN REGIONAL WEATHER ROUNDUP
NATIONAL WEATHER SERVICE GREEN BAY WI
500 AM CDT SUN SEP 24 2017

WIZ005-009-010>012-018-019-241100-
NORTH CENTRAL WISCONSIN

CITY           SKY/WX    TMP DP  RH WIND       PRES   REMARKS
IRONWOOD       CLEAR     73  64  73 S12       30.01R
MANITOWISH WTR NOT AVBL
ARBOR VITAE    CLEAR     72  65  79 S5        30.06S
EAGLE RIVER    PTCLDY    65  63  96 CALM      30.07S
LAND O LAKES   CLOUDY    63  62  95 CALM      30.09S
RHINELANDER    CLEAR     65  63  93 CALM      30.08S
PHILLIPS       PTCLDY    69  64  83 S6        30.04S
ANTIGO         CLEAR     64  63  96 S3        30.09R
TOMAHAWK       CLEAR     61  60  96 CALM      30.07S
MERRILL        CLEAR     59  59 100 NE3       30.07S FOG
$$

WIZ013-073-241100-
NORTHEAST WISCONSIN

CITY           SKY/WX    TMP DP  RH WIND       PRES   REMARKS
IRON MOUNTAIN  CLEAR     67  63  87 CALM      30.06R
MARINETTE      CLEAR     66  65  96 CALM      30.07R
OCONTO         CLEAR     63  62  98 CALM      30.06S
$$

WIZ017-030-035>037-045-241100-
CENTRAL WISCONSIN

CITY           SKY/WX    TMP DP  RH WIND       PRES   REMARKS
MEDFORD        CLEAR     64  61  89 SE6       30.05S
WAUSAU         CLEAR     65  63  93 E5        30.05S
MOSINEE        CLEAR     64  63  94 S6        30.07S
MARSHFIELD     CLEAR     65  60  84 S6        30.05S
WISC RAPIDS    CLEAR     67  63  87 S3        30.06S
STEVENS POINT  CLEAR     62  62 100 CALM      30.06S
WAUPACA        CLEAR     66  65  97 CALM      30.06S FOG
SHAWANO        CLEAR     69  65  87 CALM      30.06S
CLINTONVILLE   PTCLDY    64  63  94 CALM      30.06S FOG
WAUTOMA        CLEAR     62  61  96 CALM      30.07S
$$

WIZ038-039-048-051-241100-
FOX VALLEY

CITY           SKY/WX    TMP DP  RH WIND       PRES   REMARKS
NWS GREEN BAY  CLEAR     70  65  84 S5        30.07R
APPLETON       CLEAR     68  61  77 CALM      30.06S
OSHKOSH        CLEAR     67  64  90 S6        30.06S
FOND DU LAC    CLEAR     68  62  81 CALM      30.07S
$$

WIZ022-050-052-241100-
EAST CENTRAL WISCONSIN

CITY           SKY/WX    TMP DP  RH WIND       PRES   REMARKS
EPHRAIM        FAIR      72  63  73 CALM      30.07S
WASHINGTON ISL FAIR      68  65  89 S5        30.07S
STURGEON BAY   CLEAR     72  64  76 S9        30.07S
MANITOWOC      CLEAR     71  66  84 S6        30.07F
SHEBOYGAN      CLEAR     62  62 100 CALM      30.07F FOG
$$

LMZ563-521-522-541>543-241100-
LAKESHORE

STATION/POSITION TIME  TEMP    WIND        PRES    VSBY  WAVE
                       AIR SEA DIR/SP/G                  HT/PER
                 (UTC) (F)     (DEG/KT/KT) (MB)    (MI)  (FT/S)
SHEBOYGAN LKSHOR 1000   70     180/  1/  1 1017.9S
KEWAUNEE LKSHORE 0948   63      CALM  /  2 1017.3F
NORTHPORT PIER   0940   72     170/  4/  9 1017.9R
N MID LAKE BUOY  0950   69 67  200/ 10/ 12 1018.7R         1/ 3
S GREEN BAY BUOY 0930   72 69  180/  8/ 10 1017.5F
SISTER BAY LKSHO 1004   73     170/ 11/ 13   N/A
MENOMINEE LKSHOR 0948   70     180/  3/  4 1017.5R
$$




USA.gov is the U.S. government's official web portal to all federal, state and local government web resources and services.